STARLINK-2325

Last updated on Sat Apr 24 2021 00:02:02 GMT+0000 (Coordinated Universal Time)

1 47979U 21024C 21113.25001157 .00075810 00000-0 54050-3 0 9992 2 47979 53.0491 55.7150 0001420 81.6767 63.4666 15.73161361 1821

Satellite not in orbit

STARLINK-2325